CAPE
435 517 807 1028 1059 1183 1015 967 1090 1373 1402 1344 1376 1233 1341 1535 1527 1341 1203 1481 1705 1570 1623 1564 1440 1448 1374 1245 1167 1214 1332 771 427 585 831 888 876 743 949 832 912 870 1169
154 638 1021 977 1131 1165 927 1209 1140 1270 1575 1556 1553 1367 1703 1370 1520 1420 1562 1567 1490 1520 1436 1214 1191 1330 1288 1122 1098 981 906 916 837 811 938 1318 899 638 799 934 999 832 964
343 524 704 1119 1061 814 1096 1040 1046 1507 1420 926 1375 1270 1361 1341 1593 1514 1544 1508 1256 1155 1147 1104 1339 1216 1270 1102 952 964 810 734 652 683 1113 803 937 702 641 969 1031 1169 1394
248 389 559 553 669 998 832 971 1127 1158 1375 1110 1443 1160 1324 1104 1301 1497 1485 1451 1083 1020 1053 1053 945 925 1027 1124 1187 1199 962 884 930 1160 915 612 434 885 623 881 1242 1090 1167
371 647 860 1071 897 944 1067 1346 1207 1524 1306 1308 1086 1197 1069 1237 1477 1453 1191 1192 1257 1251 1167 1163 988 939 820 763 813 710 595 563 804 941 636 832 352 851 944 1294 1030 1061 1304
280 386 936 1115 1024 593 980 506 893 978 1120 1273 1330 900 1427 1196 1488 1237 1616 1363 1320 1204 1202 1255 1215 1060 880 890 874 778 503 653 110 0 6 661 191 271 512 1454 1358 813 628
247 331 849 1083 401 1058 1282 386 1428 1492 1024 749 679 1304 1242 1408 1611 1439 1144 983 932 750 644 612 886 1020 943 1124 1113 943 517 923 8 0 20 0 422 257 402 919 1472 990 600
383 427 527 650 170 1016 1033 414 1371 1555 1634 1379 1382 1489 1291 962 570 394 317 270 342 389 301 237 380 534 648 1038 843 541 371 957 824 1 1 50 192 686 629 645 752 763 1108
345 310 283 0 192 1080 1089 1460 1382 974 865 791 517 296 181 179 242 194 309 489 834 1157 1151 1178 1252 1303 1274 1257 1234 918 651 801 333 49 0 2 141 830 1220 867 1007 1194 1466
294 152 0 13 386 781 1253 1135 831 218 65 41 80 349 612 634 842 866 1212 844 816 1077 1258 1636 1683 1616 1307 1308 1193 946 937 1062 0 17 28 5 128 942 1253 1425 1149 1325 1441
393 282 104 384 760 1091 694 207 36 213 574 923 925 519 963 1401 946 593 1022 577 986 985 1166 1201 1042 991 791 695 21 792 529 240 79 4 2 28 609 959 1183 1329 1345 1391 1626
205 413 176 0 235 571 0 60 182 613 1014 1269 1315 1588 1468 741 23 1121 679 1227 1418 1261 1415 382 876 1095 273 442 259 885 1259 53 1066 19 109 883 884 918 1358 1035 1162 1595 1665
61 517 306 0 3 39 46 633 830 1207 1117 1635 1464 904 1787 637 946 1283 1676 1173 1409 1750 1975 3 1162 1413 288 1200 912 1187 757 415 562 1143 792 834 1074 791 1190 1697 1496 1570 1901
50 83 7 0 2 17 48 410 860 982 287 1016 821 399 1185 1119 1406 830 1272 1017 1161 1485 1649 1500 1729 1894 1356 1204 992 1257 1161 875 1266 1617 823 909 915 974 1900 1931 1636 1731 2064
55 15 46 30 127 26 496 1037 313 861 823 768 1001 1635 1242 1441 1263 2005 1486 1695 816 1281 1377 1872 1725 1630 1399 1644 1338 1145 1042 1133 967 1570 1167 1052 755 717 1055 1290 1493 1593 1825
126 0 0 4 365 1147 1126 736 1013 787 1295 574 1050 1466 1838 1846 0 651 1723 1221 1402 1474 1324 1234 1651 1809 1018 648 565 555 1010 912 1344 1123 1639 1302 1052 909 1280 850 568 683 1212
107 0 0 103 643 1153 1113 1161 918 898 913 1048 1228 1514 1619 1648 1949 1286 1871 1687 1929 1983 2150 1499 1923 2058 1564 1672 1317 97 457 1015 1197 1261 1506 1562 1299 912 574 224 123 226 268
85 0 0 21 870 987 1064 1333 1271 410 1342 815 1546 1231 1567 1705 1874 2000 1863 1420 2249 2562 1870 2088 2103 2310 2367 1456 1466 1293 696 592 1261 1135 795 1746 1437 1043 335 13 47 64 336
128 0 0 575 791 1118 1127 1059 1383 1052 524 763 1161 1215 1507 1654 1861 1297 2190 1992 2646 2397 2374 2493 2399 2339 2124 1921 1153 1536 1599 1282 1360 1345 679 1495 451 603 348 26 0 72 326
258 0 27 991 1084 1018 877 1248 1179 374 963 643 814 1038 953 1253 1530 2081 1956 2333 2405 2489 2676 2500 2494 2407 2591 1874 1347 964 657 970 595 754 557 468 59 0 0 0 0 69 268
220 6 272 858 1158 1142 894 1000 1227 1077 703 572 779 577 1172 1211 1319 1492 1802 2586 2045 2782 2735 2630 2195 2215 2385 1719 834 221 130 482 1 170 10 18 113 0 0 0 0 0 214
365 336 273 811 1274 1314 1247 1133 1215 1146 863 813 827 684 1055 1146 1210 1412 2162 2585 2497 2614 2300 2398 2306 2197 2418 1999 932 88 21 38 0 0 0 15 0 0 0 0 0 0 0
259 411 160 1029 1456 1248 1191 972 1242 1344 809 399 293 491 1121 984 1224 1723 2131 2457 2511 2376 2117 2555 2800 2577 1237 956 362 30 6 0 0 0 0 0 0 0 0 0 0 0 0
305 517 333 745 1315 1189 1293 961 971 1056 522 465 480 1294 1104 958 1316 1625 1915 2242 2590 2472 2445 2925 2722 2056 1844 765 0 0 0 0 0 0 0 0 0 0 0 0 0 0 0
357 352 540 569 1197 1070 1184 1448 1007 1098 801 568 525 970 676 1593 1617 1732 1910 2334 2554 2580 2918 2773 2427 2213 1363 469 0 0 0 0 0 0 0 0 0 0 0 0 0 0 0
440 389 498 703 829 988 1034 1025 1212 864 742 940 585 1053 1016 1566 1945 2013 2297 2473 2397 2791 3132 2724 2313 1809 758 370 0 0 0 0 0 0 0 0 0 0 0 0 0 0 0
CIN
-1 -2 -0 -0 -0 -0 -2 -3 -5 -0 -0 -0 -0 -4 -1 -0 -0 -1 -6 -1 -0 -0 -0 -0 -0 -0 -0 -13 -20 -9 -4 -35 -57 -58 -42 -35 -29 -37 -29 -27 -13 -6 -20
-4 -0 -9 -0 -0 -0 -0 -1 -3 -0 -0 -0 -0 -1 -0 -0 -0 -0 -0 -0 -0 -0 -0 -0 -0 -0 -5 -18 -24 -35 -31 -30 -47 -47 -48 -26 -53 -68 -57 -28 -8 -18 -25
-4 -5 -0 -0 -1 -2 -1 -2 -2 -0 -0 -9 -1 -0 -0 -0 -0 -0 -0 -0 -0 -0 -0 -0 -0 -1 -1 -15 -26 -27 -33 -41 -52 -46 -12 -12 -22 -74 -69 -44 -24 -9 -3
-2 -1 -0 -2 -4 -1 -1 -2 -2 -0 -0 -3 -0 -3 -2 -5 -0 -0 -0 -0 -2 -2 -1 -3 -9 -10 -6 -5 -11 -13 -31 -39 -37 -6 -11 -28 -20 -56 -77 -33 -12 -21 -24
-11 -12 -0 -0 -2 -2 -0 -0 -2 -0 -1 -0 -2 -0 -4 -1 -0 -2 -0 -5 -0 -0 -1 -0 -6 -17 -23 -23 -27 -38 -56 -58 -25 -18 -26 -11 -26 -61 -53 -22 -25 -27 -2
-6 -13 -0 -0 -0 -7 -0 -21 -2 -4 -0 -0 -0 -3 -0 -7 -0 -10 -0 -5 -4 -8 -10 -6 -9 -12 -34 -30 -32 -38 -60 -36 -127 -4 -111 -14 -62 -93 -72 -17 -3 -26 -38
-33 -24 -0 -0 -22 -0 -0 -31 -0 -0 -1 -17 -26 -2 -13 -5 -0 -3 -13 -22 -24 -38 -52 -49 -41 -32 -45 -38 -37 -51 -61 -21 -40 -0 -31 -0 -53 -89 -76 -46 -0 -15 -39
-15 -21 -6 -9 -69 -1 -0 -35 -0 -0 -0 -0 -6 -8 -18 -26 -49 -65 -68 -80 -76 -76 -86 -94 -88 -72 -68 -57 -67 -88 -92 -65 -57 -0 -85 -89 -95 -45 -52 -65 -35 -33 -13
-37 -19 -27 -0 -65 -2 -2 -0 -0 -14 -32 -44 -67 -84 -93 -88 -83 -92 -79 -60 -53 -43 -47 -50 -52 -51 -48 -58 -62 -77 -91 -64 -74 -129 -0 -42 -52 -23 -30 -49 -41 -25 -3
-21 -30 -0 -24 -28 -21 -0 -10 -28 -89 -115 -116 -115 -48 -60 -64 -33 -8 -22 -61 -65 -49 -42 -38 -40 -37 -39 -56 -73 -72 -62 -14 -10 -161 -55 -121 -64 -21 -42 -30 -37 -28 -26
-11 -19 -34 -7 -5 -3 -26 -75 -129 -97 -55 -41 -34 -21 -47 -25 -18 -55 -12 -35 -45 -43 -48 -46 -57 -44 -33 -46 -107 -47 -54 -110 -147 -113 -40 -176 -78 -57 -66 -51 -46 -28 -13
-35 -16 -2 -0 -13 -5 -0 -100 -93 -43 -33 -26 -18 -5 -15 -68 -26 -46 -33 -31 -33 -33 -26 -170 -85 -19 -213 -125 -118 -77 -30 -128 -99 -108 -164 -105 -89 -95 -70 -76 -65 -39 -30
-51 -9 -9 -0 -8 -31 -25 -13 -9 -10 -17 -6 -7 -45 -8 -35 -38 -20 -15 -19 -21 -17 -15 -83 -39 -41 -103 -53 -37 -31 -94 -49 -122 -60 -116 -99 -96 -103 -92 -59 -57 -52 -28
-61 -41 -0 -0 -5 -42 -15 -17 -19 -9 -63 -21 -30 -62 -13 -8 -5 -8 -6 -16 -11 -7 -7 -25 -13 -9 -14 -32 -28 -13 -18 -53 -13 -28 -90 -93 -102 -103 -58 -43 -47 -38 -19
-44 -12 -74 -87 -48 -56 -15 -13 -55 -15 -34 -37 -16 -4 -4 -7 -11 -11 -10 -5 -9 -8 -8 -10 -11 -12 -14 -13 -10 -5 -8 -3 -5 -37 -71 -89 -93 -94 -85 -71 -54 -44 -28
-9 -1 -0 -38 -28 -3 -13 -14 -7 -20 -6 -28 -27 -11 -3 -5 -30 -68 -22 -5 -10 -7 -14 -26 -20 -15 -17 -9 -22 -21 -10 -4 -7 -14 -37 -78 -90 -91 -80 -83 -88 -77 -50
-6 -0 -0 -102 -8 -5 -6 -14 -10 -9 -3 -6 -20 -20 -7 -9 -7 -62 -13 -21 -15 -13 -4 -7 -10 -6 -6 -9 -20 -299 -60 -15 -9 -17 -21 -43 -84 -62 -90 -187 -271 -193 -157
-22 -0 -0 -39 -1 -1 -6 -8 -6 -13 -14 -3 -10 -19 -12 -10 -6 -5 -13 -22 -18 -9 -10 -11 -12 -7 -6 -22 -18 -27 -47 -28 -27 -32 -24 -22 -50 -70 -162 -389 -364 -316 -149
-22 -0 -0 -3 -2 -0 -5 -11 -4 -10 -14 -8 -5 -14 -7 -13 -15 -42 -20 -12 -12 -12 -16 -13 -16 -18 -18 -20 -25 -21 -30 -18 -11 -27 -39 -18 -63 -63 -134 -181 -0 -244 -119
-12 -0 -121 -2 -3 -4 -17 -3 -1 -19 -5 -0 -3 -15 -27 -24 -12 -4 -15 -6 -6 -8 -11 -18 -10 -20 -7 -16 -27 -34 -21 -4 -14 -13 -38 -124 -248 -0 -0 -0 -0 -137 -152
-12 -197 -42 -3 -7 -6 -16 -5 -3 -8 -4 -2 -11 -28 -23 -28 -35 -33 -15 -5 -10 -7 -14 -9 -23 -26 -11 -12 -69 -177 -216 -76 -1 -121 -306 -214 -213 -0 -0 -0 -0 -0 -211
-18 -39 -56 -5 -5 -2 -2 -5 -4 -5 -4 -14 -24 -42 -27 -41 -47 -36 -13 -5 -15 -5 -8 -8 -14 -19 -3 -8 -47 -232 -140 -207 -0 -0 -0 -190 -0 -0 -0 -0 -0 -0 -0
-50 -54 -144 -7 -3 -4 -1 -8 -13 -18 -22 -55 -90 -93 -48 -65 -56 -22 -8 -9 -19 -15 -9 -6 -7 -4 -67 -60 -150 -351 -79 -0 -0 -0 -0 -0 -0 -0 -0 -0 -0 -0 -0
-66 -30 -114 -30 -4 -13 -7 -4 -18 -23 -40 -67 -83 -21 -47 -78 -67 -45 -44 -33 -11 -18 -16 -5 -6 -35 -31 -145 -0 -0 -0 -0 -0 -0 -0 -0 -0 -0 -0 -0 -0 -0 -0
-86 -112 -74 -81 -8 -20 -11 -5 -18 -15 -33 -70 -91 -53 -108 -41 -59 -62 -68 -51 -32 -28 -10 -8 -21 -17 -106 -235 -0 -0 -0 -0 -0 -0 -0 -0 -0 -0 -0 -0 -0 -0 -0
-111 -138 -129 -84 -58 -37 -40 -37 -33 -70 -89 -66 -121 -68 -93 -55 -55 -70 -55 -46 -48 -18 -9 -14 -43 -94 -237 -300 -0 -0 -0 -0 -0 -0 -0 -0 -0 -0 -0 -0 -0 -0 -0
Wind_Speed
24 26 22 7 9 20 19 24 16 13 19 22 20 19 17 17 23 26 25 25 24 25 25 25 25 24 23 23 23 23 22 22 22 22 19 19 19 17 14 11 11 12 11
25 27 16 8 14 19 23 22 21 20 18 21 22 22 19 20 25 18 24 24 24 24 24 24 24 23 23 22 22 22 20 20 20 21 21 20 19 18 15 12 11 12 11
21 26 23 11 19 20 20 22 21 21 20 22 23 22 21 23 24 23 25 24 23 23 23 23 22 22 21 21 20 19 18 17 18 19 19 14 20 16 17 13 12 10 9
25 23 18 16 17 18 20 20 22 23 23 24 24 24 23 23 23 21 23 22 22 22 22 21 21 20 19 19 18 18 15 14 15 16 17 19 20 17 16 14 13 10 9
21 19 18 16 19 21 21 23 23 24 24 23 24 24 23 23 24 21 22 22 22 21 20 19 18 17 17 17 17 16 13 13 16 17 17 19 19 19 18 14 12 11 9
21 19 18 21 20 21 23 23 23 23 23 24 24 23 22 22 22 22 21 20 21 20 19 17 16 15 15 14 13 15 13 19 21 24 16 18 17 19 19 18 15 12 10
17 19 20 22 20 22 23 23 23 23 24 24 23 22 22 22 21 20 20 19 18 17 15 14 13 13 14 12 11 10 9 12 18 16 18 18 18 20 20 20 18 16 13
19 18 22 21 22 22 23 23 23 24 24 23 22 21 21 21 20 19 19 18 16 14 13 12 11 11 11 11 11 10 10 9 12 12 20 17 16 18 20 20 20 18 15
17 21 22 22 22 22 23 22 23 23 22 22 21 21 21 20 20 20 21 18 15 13 12 11 10 9 10 11 11 9 10 8 23 23 22 22 23 18 19 19 20 19 17
20 21 21 24 24 23 23 23 23 23 22 21 20 19 19 17 16 17 16 17 15 13 11 10 8 8 10 12 12 9 9 16 23 23 8 15 15 19 19 18 18 17 16
22 23 23 23 23 24 23 23 23 22 20 17 14 19 13 13 17 17 16 17 16 15 13 10 9 9 8 7 12 12 10 13 23 22 20 22 23 21 18 17 17 15 14
24 24 25 23 24 23 23 22 22 21 20 18 13 7 15 7 10 22 16 15 14 15 15 16 9 7 10 11 10 8 14 10 19 24 21 23 23 20 17 16 16 14 14
23 25 26 22 24 23 21 21 21 21 15 21 20 6 22 19 13 13 18 15 12 14 20 19 12 19 19 15 13 15 12 13 21 21 22 22 20 17 16 16 16 15 13
21 22 21 21 22 19 21 21 17 19 21 18 24 21 13 17 18 25 14 22 15 17 20 17 14 15 14 17 18 11 9 15 22 23 21 21 21 19 18 19 19 17 12
19 15 15 19 14 22 19 21 20 16 20 18 17 23 20 10 5 5 15 15 16 9 12 16 13 11 8 11 15 16 6 15 22 21 19 19 19 19 19 19 19 21 21
15 14 12 22 24 24 20 23 20 18 17 23 21 24 22 25 16 13 9 13 19 11 16 11 9 7 5 6 7 4 5 8 22 21 18 18 21 21 21 21 20 19 21
14 13 15 24 26 24 24 23 20 19 16 21 23 24 24 20 19 13 15 17 7 4 7 9 3 6 7 13 17 24 9 13 20 23 25 19 21 20 21 21 22 22 21
17 11 23 27 27 25 26 23 18 20 15 18 22 23 23 18 5 6 18 20 10 5 1 8 8 9 10 6 3 9 8 15 13 20 20 15 18 17 18 22 22 21 21
7 12 30 29 27 26 26 24 20 20 21 17 21 23 16 14 22 11 12 18 11 10 20 2 3 5 4 5 7 17 10 16 18 20 16 19 21 19 18 21 27 20 20
21 12 32 29 27 27 27 24 23 22 19 21 20 22 13 10 13 13 10 16 11 17 16 10 7 4 8 8 0 3 4 16 18 17 19 21 23 25 25 26 25 22 19
20 11 34 30 24 27 26 25 23 23 21 20 20 20 17 14 8 6 7 12 6 17 15 7 7 5 8 14 11 1 2 24 24 24 24 22 23 24 25 24 26 23 19
8 34 36 34 29 29 27 26 23 21 22 12 21 21 18 16 13 10 11 9 10 10 18 15 20 10 12 13 18 18 15 11 14 19 18 19 20 23 24 24 24 24 23
25 33 37 35 32 31 28 27 24 21 22 19 20 20 21 17 13 14 12 12 9 6 15 14 22 22 15 17 23 22 20 19 13 17 24 22 21 22 23 24 23 24 23
33 38 36 36 33 31 30 27 26 25 23 21 22 23 21 16 13 12 13 11 10 9 14 17 20 16 15 17 18 20 20 14 16 17 17 23 24 24 22 23 23 24 24
40 39 37 35 34 31 32 29 26 28 24 23 23 21 18 17 14 13 13 10 10 9 13 18 20 23 23 24 21 20 22 21 25 20 19 23 25 23 20 22 23 25 26
42 40 36 34 34 33 31 32 30 28 27 23 23 20 18 16 15 14 13 11 10 11 16 16 17 23 24 27 23 25 25 24 23 22 22 23 26 22 21 21 24 24 24
Wind_Direction
91 129 148 183 24 61 51 77 30 15 37 47 34 27 19 18 40 57 57 56 53 60 63 69 76 81 83 82 86 92 100 108 114 101 68 70 72 64 48 21 26 23 26
92 99 176 17 36 51 71 64 54 47 33 44 47 43 31 32 54 23 52 54 55 59 66 67 71 73 81 82 85 94 106 117 124 122 108 96 83 77 67 40 22 34 24
76 97 81 28 57 60 56 61 55 52 47 58 62 53 42 53 58 51 64 58 53 56 63 66 65 65 64 72 85 99 102 131 140 136 114 65 123 66 73 59 50 40 359
94 83 61 51 47 50 58 58 61 70 68 69 70 68 60 57 54 40 57 51 50 60 66 69 65 55 56 60 78 89 118 143 171 169 139 128 119 76 68 64 63 32 352
76 69 62 51 61 69 63 70 74 78 75 80 78 75 66 61 72 50 50 51 54 62 65 72 60 34 42 57 46 57 78 191 255 261 257 145 109 84 79 65 58 50 355
79 69 64 77 70 69 76 79 78 75 78 79 81 76 66 58 70 54 50 45 55 65 72 89 79 77 80 80 86 31 54 293 352 304 261 128 63 88 89 76 68 50 28
68 71 73 86 71 78 81 79 81 82 86 87 84 80 83 82 63 57 54 48 51 69 123 128 122 140 163 156 151 140 85 346 28 78 207 38 92 86 100 78 79 59 44
77 73 88 84 84 83 80 86 86 83 93 95 95 94 95 91 92 84 87 92 101 141 143 139 145 152 159 168 167 166 167 157 44 60 62 354 271 86 105 82 97 71 55
75 88 95 97 90 88 87 88 96 100 108 109 115 117 118 125 130 124 127 128 140 138 137 140 145 159 177 188 186 185 173 140 33 6 16 33 210 115 97 98 103 93 74
89 98 93 104 106 104 100 102 109 117 117 122 128 135 131 138 133 132 132 113 122 127 132 150 162 166 181 189 191 180 162 74 30 24 74 62 104 126 114 115 103 96 86
105 113 120 121 118 113 104 117 124 127 132 146 140 92 137 130 92 114 114 102 112 111 123 144 164 167 181 227 254 240 208 60 65 88 92 104 114 134 131 116 99 90 74
129 125 125 113 123 122 102 118 131 128 128 135 153 164 75 274 140 82 101 105 118 106 99 332 221 155 255 147 140 152 80 61 114 97 104 109 111 100 94 94 115 102 130
122 129 131 104 131 128 100 129 134 130 169 115 66 234 73 90 111 113 96 96 122 110 86 90 116 101 98 113 131 105 126 99 87 106 103 104 114 122 130 126 88 85 111
113 111 108 109 130 86 127 143 179 98 88 139 70 94 107 103 107 75 117 90 115 106 93 102 119 126 115 112 98 120 117 110 83 82 93 91 79 80 71 48 45 43 91
109 86 80 100 119 118 158 136 159 184 129 25 115 80 100 141 240 183 113 122 104 130 126 112 129 135 147 134 107 94 159 88 68 71 80 78 70 64 53 40 22 2 352
98 92 75 116 131 142 160 156 155 167 146 97 105 86 75 64 116 127 133 127 100 120 108 120 139 162 159 193 154 214 164 129 50 60 64 65 58 51 42 35 29 20 5
102 96 93 122 144 141 154 158 163 163 167 119 84 96 78 106 100 116 113 108 143 146 150 113 219 290 246 294 308 351 236 82 49 34 26 59 46 50 42 30 20 12 6
115 99 124 137 141 147 146 155 167 85 182 132 90 79 89 110 155 174 109 102 124 128 218 304 290 294 290 266 146 70 112 61 86 45 46 66 59 55 43 27 21 15 9
96 108 154 157 141 145 147 156 161 157 141 152 85 70 129 131 36 149 123 102 117 109 82 314 286 296 291 289 270 60 92 75 57 56 61 55 44 51 47 28 10 22 17
141 116 167 169 139 146 148 160 155 133 161 130 82 77 154 157 133 127 139 112 119 97 88 92 97 88 83 66 340 235 258 66 56 67 56 60 36 23 16 12 12 16 16
152 127 180 185 132 147 145 156 158 137 144 131 80 109 143 146 160 161 149 118 135 96 93 96 89 84 80 70 75 49 160 49 42 43 25 27 26 23 21 21 9 12 17
186 176 181 183 155 164 166 163 163 169 140 25 79 121 144 141 144 143 133 126 117 111 85 86 67 78 79 77 64 65 80 87 71 54 50 46 34 24 18 16 14 15 10
152 162 176 181 171 173 170 169 174 192 131 125 146 141 137 144 150 134 136 120 121 114 88 81 62 60 74 68 64 63 63 57 57 55 33 31 26 22 18 16 19 12 12
162 178 172 179 170 169 181 164 157 159 153 151 147 118 132 156 155 157 127 120 111 108 85 74 63 70 66 64 65 60 60 62 50 41 38 26 22 20 22 21 20 16 14
185 179 174 169 173 168 174 176 152 168 165 145 146 132 163 161 155 151 126 115 107 102 80 67 59 52 51 46 51 52 45 44 32 33 29 21 15 16 23 23 21 16 12
192 180 170 166 170 172 165 176 181 166 177 178 156 149 166 165 153 145 116 101 93 89 69 64 60 46 41 35 41 39 38 37 33 31 25 20 14 17 18 25 19 17 17